ONEWEB-0116 (48046 NORAD) Tracking and Keplerian Element Data

This shows tracking and keplerian element data for the satellite.

Feedback or suggestion? Click here.




ElementValue
Catalog48046
NameONEWEB-0116
Epoch Orbit199
Epoch Day170.58334491
Epoch Year2021
RAAN323.1417
Inclination87.7837
Eccentricity0.000765
Argument of Perigee342.595
Mean Anonmoly317.4461
Mean Motion13.89767514
Decay Rate1.6E-07
L11 48046U 21025E 21170.58334491 .00000016 00000-0 00000-0 0 9997
L22 48046 87.7837 323.1417 0007650 342.5950 317.4461 13.89767514 1997

Live tracking and technical data element details for ONEWEB-0116 (NORAD 48046). ONEWEB-0116 can be tracked NOW for your location showing map with azimuth and elevation plus other details from your city location.

Track the satellite on the map from your city or location and see movement details for azimuth, elevation, latitude, longitude, range, height, and movement on the map or in text.







IsCatalogInMostPopularTable: catalog: 48046, numindb: 43
Update: records affected: 1



GetName: 48046 ONEWEB-0116

Hit Count: updated at: Mon, 21 Jun 2021 03:53:28 GMT